Вернуться в каталог

FENGYUN 1C DEB

АктивенSSO
NORAD 30439·DEBRIS·🇨🇳 China

Запущен May 10, 1999 с Taiyuan Satellite Launch Center

Loading…

Ближайшие Пролёты (ближайшие 24 часа)

TLE

СвежийSource: Space-Track

Эпоха: Sep 13, 2026, 00:27 UTC

1 30439U 99025AFA 26256.01885730  .00000282  00000-0  18601-3 0  9998
2 30439  98.7456 264.7169 0037131 279.8760 136.3147 14.09156017  6420

Отслеживайте FENGYUN 1C DEB в реальном времени с AllMySat

Download on the App Store